Regional Weather Roundup
Issued by NWS

Home | Current Version | Previous Version | Text Only | Print | Product List | Glossary On
Versions: 1 2 3 4 5 6 7 8 9 10 11 12 13 14 15 16 17 18 19 20 21 22 23 24 25 26 27 28 29 30 31 32 33 34 35 36 37 38 39 40 41 42 43 44 45 46 47 48 49 50
000
ASUS45 KBOI 271310
RWRID

IDAHO REGIONAL WEATHER ROUNDUP
NATIONAL WEATHER SERVICE BOISE ID
700 AM MDT MON MAR 27 2017

NOTE: "FAIR" INDICATES FEW OR NO CLOUDS BELOW 12000 FEET
WITH NO SIGNIFICANT WEATHER AND/OR OBSTRUCTIONS TO VISIBILITY

IDZ012-014-271400-
SOUTHWEST IDAHO


CITY           SKY/WX    TMP DP  RH WIND       PRES   REMARKS
BOISE          CLOUDY    43  40  89 CALM      29.92R
CALDWELL       MOCLDY    43  40  89 SW6       29.93R
MOUNTAIN HOME  CLOUDY    39  39 100 W6        29.91R WCI  35
$$

IDZ016-017-271400-
SOUTHCENTRAL IDAHO


CITY           SKY/WX    TMP DP  RH WIND       PRES   REMARKS
BURLEY         CLOUDY    38  36  92 W8        29.88S WCI  32
JEROME         CLOUDY    40  38  93 SW9       29.90S WCI  34
TWIN FALLS     CLOUDY    38  35  89 SW14      29.90S WCI  30
$$

IDZ019>023-271400-
SOUTHEAST IDAHO


CITY           SKY/WX    TMP DP  RH WIND       PRES   REMARKS
IDAHO FALLS    CLOUDY    38  34  85 SW5       29.87S WCI  34
POCATELLO      CLOUDY    36  35  96 NW5       29.87R WCI  32
REXBURG        CLOUDY    39  33  79 S9        29.87S WCI  33
$$

IDZ006-010-011-018-031-032-271400-
CENTRAL IDAHO MOUNTAINS


CITY           SKY/WX    TMP DP  RH WIND       PRES   REMARKS
MCCALL         LGT SNOW  32  30  92 W5        29.85R FOG     WCI  27
HAILEY         CLOUDY    34  34 100 CALM      29.88F
STANLEY          N/A     30  29  96 CALM      29.87R
SALMON         CLOUDY    39  32  75 SW3       29.85R
CHALLIS        CLOUDY    32  28  85 NW3       29.85R
$$

IDZ002-004-006-007-026-271400-
NORTHERN IDAHO


CITY           SKY/WX    TMP DP  RH WIND       PRES   REMARKS
LEWISTON       LGT RAIN  44  43  96 CALM      29.91R
LOWELL           N/A     41  39  93 CALM      29.93R
COEUR D`ALENE  RAIN      41  39  93 SE5       29.86R
MULLAN PASS    LGT SNOW  30  30 100 SW3       29.79S VSB 3/4
$$



USA.gov is the U.S. government's official web portal to all federal, state and local government web resources and services.